| time (UTC) | temp F | wind direction | speed MPH | gust MPH | rain 1hr in | rain 24hr in | rain mn in | humidity % | barometer mb |
| 20260510174529 | 64 | 79 | 1.0 | 7.0 | 0.00 | 0.01 | 0.01 | 50 | 1015.2 |
| 20260510173028 | 64 | 127 | 1.0 | 9.0 | 0.00 | 0.01 | 0.01 | 42 | 1015.4 |
| 20260510171528 | 64 | 92 | 2.0 | 5.0 | 0.00 | 0.01 | 0.01 | 42 | 1015.3 |
| 20260510170023 | 64 | 309 | 2.0 | 7.0 | 0.00 | 0.01 | 0.01 | 52 | 1015.5 |
| 20260510164519 | 62 | 235 | 0.0 | 7.0 | 0.00 | 0.01 | 0.01 | 59 | 1015.4 |
| 20260510163017 | 62 | 287 | 1.0 | 5.0 | 0.00 | 0.01 | 0.01 | 62 | 1015.2 |
| 20260510161513 | 61 | 343 | 1.0 | 6.0 | 0.00 | 0.01 | 0.01 | 64 | 1015.2 |
| 20260510160011 | 61 | 337 | 2.0 | 5.0 | 0.00 | 0.01 | 0.01 | 67 | 1015.0 |
| 20260510154510 | 62 | 337 | 1.0 | 4.0 | 0.00 | 0.01 | 0.01 | 69 | 1014.8 |
| 20260510153017 | 60 | 325 | 2.0 | 4.0 | 0.00 | 0.01 | 0.01 | 70 | 1014.6 |
| 20260510151505 | 60 | 267 | 2.0 | 6.0 | 0.00 | 0.01 | 0.01 | 72 | 1014.6 |
| 20260510150002 | 60 | 72 | 1.0 | 4.0 | 0.00 | 0.01 | 0.01 | 78 | 1014.2 |
| 20260510144615 | 58 | 217 | 0.0 | 4.0 | 0.00 | 0.01 | 0.01 | 79 | 1014.2 |
| 20260510143058 | 57 | 340 | 0.0 | 2.0 | 0.00 | 0.01 | 0.01 | 80 | 1014.2 |
| 20260510141556 | 57 | 126 | 0.0 | 2.0 | 0.00 | 0.01 | 0.01 | 82 | 1014.0 |
| 20260510140057 | 56 | 320 | 1.0 | 2.0 | 0.00 | 0.01 | 0.01 | 83 | 1014.2 |
| 20260510134553 | 55 | 309 | 2.0 | 5.0 | 0.01 | 0.02 | 0.01 | 85 | 1014.1 |
| 20260510133051 | 55 | 307 | 0.0 | 2.0 | 0.01 | 0.02 | 0.01 | 88 | 1013.4 |
| 20260510131549 | 54 | 231 | 0.0 | 0.0 | 0.01 | 0.02 | 0.01 | 89 | 1013.3 |
| 20260510130048 | 54 | 248 | 0.0 | 2.0 | 0.01 | 0.02 | 0.01 | 88 | 1013.2 |
| 20260510124548 | 55 | 319 | 0.0 | 1.0 | 0.00 | 0.02 | 0.00 | 87 | 1013.2 |
| 20260510123051 | 55 | 263 | 0.0 | 0.0 | 0.00 | 0.02 | 0.00 | 87 | 1013.0 |
| 20260510121543 | 54 | 229 | 0.0 | 0.0 | 0.00 | 0.02 | 0.00 | 89 | 1012.6 |
| 20260510120042 | 54 | 238 | 0.0 | 0.0 | 0.00 | 0.02 | 0.00 | 89 | 1012.7 |
| 20260510114541 | 54 | 279 | 0.0 | 0.0 | 0.00 | 0.06 | 0.00 | 89 | 1012.5 |
| 20260510113040 | 53 | 279 | 0.0 | 2.0 | 0.00 | 0.06 | 0.00 | 89 | 1012.3 |
| 20260510111544 | 53 | 250 | 0.0 | 3.0 | 0.00 | 0.06 | 0.00 | 90 | 1011.9 |
| 20260510110035 | 53 | 320 | 0.0 | 0.0 | 0.00 | 0.06 | 0.00 | 90 | 1011.4 |
| 20260510104543 | 52 | 321 | 0.0 | 3.0 | 0.00 | 0.08 | 0.00 | 91 | 1011.0 |
| 20260510103030 | 52 | 232 | 0.0 | 0.0 | 0.00 | 0.08 | 0.00 | 92 | 1010.6 |
| 20260510101528 | 52 | 231 | 0.0 | 0.0 | 0.00 | 0.08 | 0.00 | 91 | 1010.5 |
| 20260510100025 | 52 | 230 | 0.0 | 0.0 | 0.00 | 0.08 | 0.00 | 91 | 1010.1 |
| 20260510094523 | 52 | 231 | 0.0 | 0.0 | 0.00 | 0.10 | 0.00 | 91 | 1009.8 |
| 20260510093020 | 53 | 232 | 0.0 | 0.0 | 0.00 | 0.10 | 0.00 | 91 | 1009.5 |
| 20260510091525 | 52 | 232 | 0.0 | 0.0 | 0.00 | 0.10 | 0.00 | 91 | 1009.1 |
| 20260510090016 | 53 | 232 | 0.0 | 0.0 | 0.00 | 0.10 | 0.00 | 90 | 1009.2 |
| 20260510084530 | 53 | 232 | 0.0 | 0.0 | 0.00 | 0.11 | 0.00 | 90 | 1008.9 |
| 20260510083012 | 53 | 232 | 0.0 | 0.0 | 0.00 | 0.11 | 0.00 | 89 | 1008.6 |
| 20260510081528 | 53 | 232 | 0.0 | 0.0 | 0.00 | 0.11 | 0.00 | 90 | 1008.8 |
| 20260510080011 | 53 | 232 | 0.0 | 0.0 | 0.00 | 0.11 | 0.00 | 89 | 1008.8 |
| 20260510074507 | 54 | 231 | 0.0 | 0.0 | 0.00 | 0.12 | 0.00 | 89 | 1008.8 |
| 20260510073007 | 54 | 231 | 0.0 | 0.0 | 0.00 | 0.12 | 0.00 | 88 | 1008.5 |
| 20260510071506 | 55 | 232 | 0.0 | 0.0 | 0.00 | 0.12 | 0.00 | 87 | 1008.5 |
| 20260510070008 | 55 | 231 | 0.0 | 0.0 | 0.00 | 0.12 | 0.00 | 87 | 1008.6 |
| 20260510064503 | 55 | 231 | 0.0 | 0.0 | 0.00 | 0.12 | 0.00 | 86 | 1008.7 |
| 20260510063003 | 56 | 231 | 0.0 | 0.0 | 0.00 | 0.12 | 0.00 | 86 | 1008.7 |
| 20260510061505 | 55 | 232 | 0.0 | 0.0 | 0.00 | 0.12 | 0.00 | 88 | 1008.8 |
| 20260510060101 | 54 | 229 | 0.0 | 0.0 | 0.00 | 0.12 | 0.00 | 87 | 1008.7 |
| 20260510054603 | 55 | 229 | 0.0 | 0.0 | 0.00 | 0.12 | 0.00 | 86 | 1008.5 |
| 20260510053100 | 55 | 229 | 0.0 | 1.0 | 0.00 | 0.12 | 0.00 | 87 | 1008.7 |
| 20260510051558 | 55 | 187 | 0.0 | 2.0 | 0.00 | 0.12 | 0.00 | 86 | 1008.5 |
| 20260510044558 | 54 | 219 | 0.0 | 0.0 | 0.00 | 0.12 | 0.00 | 85 | 1008.3 |
| 20260510043100 | 55 | 221 | 0.0 | 0.0 | 0.00 | 0.12 | 0.00 | 83 | 1008.2 |
| 20260510041547 | 57 | 226 | 0.0 | 1.0 | 0.00 | 0.12 | 0.00 | 81 | 1008.2 |
| 20260510040047 | 57 | 193 | 0.0 | 2.0 | 0.00 | 0.12 | 0.00 | 81 | 1008.0 |
| 20260510034550 | 57 | 146 | 0.0 | 1.0 | 0.00 | 0.12 | 0.12 | 81 | 1008.0 |
| 20260510033042 | 57 | 158 | 0.0 | 2.0 | 0.00 | 0.12 | 0.12 | 81 | 1008.1 |
| 20260510031556 | 57 | 158 | 0.0 | 2.0 | 0.00 | 0.12 | 0.12 | 79 | 1007.9 |
| 20260510030041 | 57 | 166 | 0.0 | 0.0 | 0.00 | 0.12 | 0.12 | 79 | 1007.8 |
| 20260510024540 | 57 | 155 | 0.0 | 2.0 | 0.00 | 0.12 | 0.12 | 79 | 1007.8 |
| 20260510023044 | 57 | 146 | 0.0 | 3.0 | 0.00 | 0.12 | 0.12 | 80 | 1007.6 |
| 20260510021540 | 56 | 139 | 0.0 | 2.0 | 0.00 | 0.12 | 0.12 | 82 | 1007.3 |
| 20260510020038 | 57 | 155 | 0.0 | 0.0 | 0.00 | 0.12 | 0.12 | 80 | 1007.2 |
| 20260510014537 | 57 | 156 | 0.0 | 1.0 | 0.00 | 0.12 | 0.12 | 78 | 1007.1 |
| 20260510013045 | 58 | 20 | 0.0 | 0.0 | 0.00 | 0.12 | 0.12 | 76 | 1006.9 |
| 20260510011537 | 59 | 20 | 0.0 | 0.0 | 0.00 | 0.12 | 0.12 | 74 | 1006.8 |
| 20260510010036 | 60 | 20 | 0.0 | 0.0 | 0.00 | 0.12 | 0.12 | 73 | 1006.6 |
| 20260510004537 | 62 | 18 | 0.0 | 0.0 | 0.00 | 0.12 | 0.12 | 70 | 1006.4 |
| 20260510003036 | 63 | 29 | 0.0 | 2.0 | 0.00 | 0.12 | 0.12 | 67 | 1006.2 |
| 20260510001534 | 64 | 232 | 0.0 | 0.0 | 0.00 | 0.12 | 0.12 | 65 | 1006.0 |
| 20260510000036 | 65 | 141 | 0.0 | 1.0 | 0.00 | 0.12 | 0.12 | 62 | 1005.9 |
| 20260509234538 | 66 | 187 | 0.0 | 6.0 | 0.00 | 0.12 | 0.12 | 60 | 1005.8 |
| 20260509233034 | 67 | 167 | 1.0 | 7.0 | 0.00 | 0.12 | 0.12 | 56 | 1005.7 |
| 20260509231533 | 68 | 201 | 1.0 | 5.0 | 0.00 | 0.12 | 0.12 | 55 | 1005.6 |
| 20260509230033 | 69 | 187 | 1.0 | 5.0 | 0.00 | 0.12 | 0.12 | 56 | 1005.5 |
| 20260509224531 | 69 | 180 | 1.0 | 6.0 | 0.00 | 0.12 | 0.12 | 55 | 1005.5 |
| 20260509223034 | 70 | 238 | 0.0 | 9.0 | 0.00 | 0.12 | 0.12 | 54 | 1005.5 |
| 20260509221530 | 71 | 110 | 2.0 | 8.0 | 0.00 | 0.12 | 0.12 | 53 | 1005.7 |
| 20260509220028 | 71 | 121 | 0.0 | 7.0 | 0.00 | 0.12 | 0.12 | 54 | 1005.8 |
| 20260509214529 | 71 | 219 | 2.0 | 7.0 | 0.00 | 0.12 | 0.12 | 53 | 1005.9 |
| 20260509213027 | 71 | 127 | 1.0 | 10.0 | 0.00 | 0.12 | 0.12 | 53 | 1005.9 |
| 20260509211525 | 71 | 127 | 1.0 | 7.0 | 0.00 | 0.12 | 0.12 | 53 | 1005.9 |
| 20260509210028 | 71 | 307 | 3.0 | 8.0 | 0.00 | 0.12 | 0.12 | 53 | 1005.8 |
| 20260509204522 | 71 | 148 | 1.0 | 9.0 | 0.00 | 0.12 | 0.12 | 54 | 1006.0 |
| 20260509203019 | 70 | 125 | 1.0 | 7.0 | 0.00 | 0.12 | 0.12 | 54 | 1006.2 |
| 20260509201518 | 70 | 159 | 2.0 | 7.0 | 0.00 | 0.12 | 0.12 | 57 | 1006.4 |
| 20260509200016 | 70 | 186 | 3.0 | 8.0 | 0.00 | 0.12 | 0.12 | 56 | 1006.6 |
| 20260509194520 | 70 | 62 | 1.0 | 7.0 | 0.00 | 0.12 | 0.12 | 56 | 1006.8 |
| 20260509193110 | 70 | 199 | 3.0 | 6.0 | 0.00 | 0.12 | 0.12 | 56 | 1007.0 |
| 20260509191509 | 70 | 165 | 1.0 | 8.0 | 0.00 | 0.12 | 0.12 | 59 | 1007.1 |
| 20260509190010 | 68 | 191 | 1.0 | 9.0 | 0.00 | 0.12 | 0.12 | 61 | 1007.1 |
| 20260509184503 | 68 | 124 | 2.0 | 6.0 | 0.00 | 0.12 | 0.12 | 61 | 1007.2 |
| 20260509183001 | 68 | 148 | 3.0 | 7.0 | 0.00 | 0.12 | 0.12 | 62 | 1007.3 |
| 20260509181600 | 68 | 219 | 1.0 | 7.0 | 0.00 | 0.12 | 0.12 | 64 | 1007.6 |
| 20260509180109 | 67 | 242 | 2.0 | 8.0 | 0.00 | 0.12 | 0.12 | 66 | 1007.6 |